Weather in Arshanovo

Russia / Republic of Khakassia     53°24′42″N   91°03′50″E
temp.,
°C
wind,
m/s
gust,
m/s
humid.,
%
clouds,
%
prec.,
mm/h
press.,
hPa
HPBL,
m
2 december, thu
thu201:00−6ssw3383100 0.0 102935
04:00−7sse127891 0.0 102813
07:00−8sse117528 0.0 102910
10:00−8s22696 0.0 102929
13:00−4s23498 0.0 1027132
16:00−5ese115318 0.0 102710
19:00−6ese0060100 0.0 102710
22:00−7ese1167100 0.0 102710
3 december, fri
fri301:00−8sse2280100 0.0 102611
04:00−8s22855 0.0 102510
07:00−9sse22825 0.0 102410
10:00−9sse22745 0.0 102419
13:00−6ese125313 0.0 1022130
16:00−7ese115379 0.0 102010
19:00−7ne0057100 0.0 101810
22:00−7se1165100 0.0 101610
4 december, sat
sat401:00−6e0172100 0.0 101610
04:00−6s4571100 0.0 101763
07:000sw8167148 0.0 1020439
10:00−2sw5107815 0.0 1024179
13:00+2wsw61257100 0.0 1023853
16:00+1wsw81558100 0.0 1025870
19:000wsw9165935 0.0 1027921
22:00−2wsw916605 0.0 1029795
5 december, sun
sun501:00−3sw713643 0.0 1032498
04:00−4sw6137460 0.0 1033357
07:00−4sw51276100 0.0 1033287
10:00−3sw257299 0.0 1033146
13:00−2ssw236427 0.0 1031255
16:00−3sse227022 0.0 102921
19:00−4s22785 0.0 102815
22:00−5s22835 0.0 102713
6 december, mon
mon601:00−6sse228732 0.0 102714
04:00−7sse2289100 0.0 102625
07:00−8s22855 0.0 102612
10:00−8s227662 0.0 102631
13:00−5se225898 0.0 1024205
16:00−6e116199 0.0 102310
19:00−6ene1162100 0.0 102310
22:00−6e1165100 0.1 102210